Regional Weather Roundup
Issued by NWS Kansas City/Pleasant Hill, MO

Home | Current Version | Previous Version | Text Only | Print | Product List | Glossary On
Versions: 1 2 3 4 5 6 7 8 9 10 11 12 13 14 15 16 17 18 19 20 21 22 23 24 25 26 27 28 29 30 31 32 33 34 35 36 37 38 39 40 41 42 43 44 45 46 47 48 49 50
000
ASUS43 KEAX 211010
RWREAX

WEATHER ROUNDUP FOR EASTERN KANSAS AND NORTHWEST MISSOURI
NATIONAL WEATHER SERVICE KANSAS CITY/PLEASANT HILL MO
400 AM CST TUE FEB 21 2017

KSZ040-057-103>105-MOZ028-029-037-043-211100-
...KANSAS CITY METROPOLITAN AREA...

CITY           SKY/WX    TMP DP  RH WIND       PRES   REMARKS
K.C. INTL      CLOUDY    50  46  86 N9        29.95R
K.C. DOWNTOWN  PTCLDY    54  47  77 NW8       29.93S
LEES SUMMIT    CLOUDY    53  51  93 N6        29.93S
OLATHE - IXD   PTCLDY    50  47  89 N12       29.94S
OLATHE - OJC   CLOUDY    52  49  89 N9        29.93S
LAWRENCE       PTCLDY    47  45  93 NW10      29.96R

$$

MOZ001>008-011>017-020>025-030>033-038>040-044>046-053-054-211100-
...NORTHERN AND CENTRAL MISSOURI...

CITY           SKY/WX    TMP DP  RH WIND       PRES   REMARKS
ST. JOSEPH     PTCLDY    42  42 100 N7        29.97F
WARRENSBURG    MOCLDY    50  48  93 NW5       29.92R FOG
WHITEMAN AFB   CLOUDY    53  53 100 CALM      29.92R
CLINTON        CLOUDY    52  52 100 CALM      29.91S
SEDALIA        CLOUDY    55  53  93 CALM      29.93R
WARSAW         NOT AVBL
CHILLICOTHE      N/A     53  48  83 N8        29.94S
KIRKSVILLE     MOCLDY    54  51  90 N14       29.93F

$$

MOZ041-047>049-056>058-063>065-088>090-097-211100-
...EASTERN AND SOUTHERN MISSOURI...

CITY           SKY/WX    TMP DP  RH WIND       PRES   REMARKS
ST. LOUIS INTL LGT RAIN  62  60  93 SW3       29.93S
SPIRIT OF STL  LGT RAIN  60  60 100 CALM      29.91S
COLUMBIA       CLOUDY    57  57 100 E5        29.90F FOG
JEFFERSON CITY CLOUDY    57  57 100 E5        29.89F
ROLLA          FOG       55  55 100 CALM      29.91F VSB 1/2
OSAGE BEACH    CLOUDY    56  55  97 SE8       29.90F
SPRINGFIELD    MOCLDY    56  54  93 CALM      29.88S
BRANSON        CLOUDY    55  55 100 CALM      29.90R
JOPLIN         CLOUDY    52  52 100 CALM      29.91R
WEST PLAINS    LGT RAIN  57  55  93 NE12      29.89F

$$

IAZ060-094-KSZ022-034>040-054-083-096-NEZ052-066-093-211100-
...KANSAS...SOUTHEAST NEBRASKA AND IOWA...

CITY           SKY/WX    TMP DP  RH WIND       PRES   REMARKS
TOPEKA         CLEAR     47  42  83 NW5       29.97S
MANHATTAN      CLEAR     34  33  96 CALM      29.99S FOG
EMPORIA        CLEAR     43  42  97 NW8       29.96F
CHANUTE        MOCLDY    48  47  96 N8        29.92R
WICHITA        CLEAR     45  40  82 N7        29.97F
OMAHA          PTCLDY    34  30  85 CALM      29.96S
LINCOLN        CLEAR     32  30  92 CALM      29.97S
FALLS CITY     CLEAR     40  39  97 CALM      29.97R
LAMONI         PTCLDY    44  41  89 N8        29.96S
DES MOINES     CLOUDY    44  40  85 NW6       29.96R

$$




USA.gov is the U.S. government's official web portal to all federal, state and local government web resources and services.